Regional Weather Roundup
Issued by NWS

Home | Current Version | Previous Version | Text Only | Print | Product List | Glossary Off
Versions: 1 2 3 4 5 6 7 8 9 10 11 12 13 14 15 16 17 18 19 20 21 22 23 24 25 26 27 28 29 30 31 32 33 34 35 36 37 38 39 40 41 42 43 44 45 46 47 48 49 50

000
ASUS45 KABQ 230110
RWRNM
WEATHER ROUNDUP FOR NEW MEXICO
NATIONAL WEATHER SERVICE ALBUQUERQUE NM
600 PM MST SAT NOV 22 2014

NOTE: "FAIR" MEANS FEW OR NO CLOUDS BELOW 12,000 FEET AGL WITH NO
       SIGNIFICANT WEATHER OR OBSTRUCTIONS TO VISION.

      THIS PRODUCT IS RELEASED AS TWO VERSIONS.  ONE VERSION NEAR
      THE TOP OF THE HOUR CONTAINING PRELIMINARY DATA FROM ALBUQUERQUE
      AND OTHER STATIONS.  A FINAL VERSION WITH ADDITIONAL DATA IS
      ISSUED ABOUT 10 MINUTES AFTER THE HOUR.

NMZ501-503-504-510>518-230200-
NORTHWEST PLATEAU/NORTHCENTRAL MOUNTAINS

CITY           SKY/WX    TMP DP  RH WIND       PRES   REMARKS
FARMINGTON     PTCLDY    46  21  37 SE6       29.89F
LOS ALAMOS     MOCLDY    44  19  36 S5        29.94F
SANTA FE       PTCLDY    39  11  31 N8        29.90S WCI  33
TAOS           MOCLDY    39  18  41 SW12      29.92F WCI  32
ANGEL FIRE     FAIR      38  13  36 E7        29.91S WCI  32

$$
NMZ402-403-502-505>509-230200-
WESTCENTRAL MOUNTAINS/SOUTHWEST MOUNTAINS

CITY           SKY/WX    TMP DP  RH WIND       PRES   REMARKS
GALLUP         CLOUDY    44  14  29 CALM      29.98F
GRANTS         MOCLDY    43  10  26 NW5       29.98F
SILVER CITY    PTCLDY    50  14  23 NW13      30.03R

$$
NMZ407-409-411-412-230200-
SOUTHERN DESERTS

CITY           SKY/WX    TMP DP  RH WIND       PRES   REMARKS
LORDSBURG      FAIR      52  19  28 W9        29.99R
DEMING         PTCLDY    57  17  21 W15G24    29.94F
LAS CRUCES     PTCLDY    56  17  21 SW13      29.93F
HOLLOMAN AFB   PTCLDY    54  22  28 SE6       29.87F
ALAMOGORDO     PTCLDY    50  19  29 MISG      29.89S
T OR C         MOCLDY    56  21  25 W8        29.90R

$$
NMZ519>523-230200-
CENTRAL VALLEYS/CENTRAL HIGHLANDS

CITY           SKY/WX    TMP DP  RH WIND       PRES   REMARKS
ALBUQUERQUE    MOCLDY    52  15  23 W7        29.91R
MORIARTY ARPT  FAIR      44  19  37 W10       29.90S
CLINES CORNERS PTCLDY    40  19  43 W26G33    29.83F WCI  29
BELEN          FAIR      51  14  23 W10       29.91S
SOCORRO        FAIR      50  19  28 CALM      29.91R

$$
NMZ524>526-539-540-230200-
SOUTHCENTRAL MOUNTAINS

CITY           SKY/WX    TMP DP  RH WIND       PRES   REMARKS
RUIDOSO        PTCLDY    46  14  27 W16       29.91F

$$
NMZ527>531-230200-
NORTHEAST HIGHLANDS/NORTHEAST PLAINS

CITY           SKY/WX    TMP DP  RH WIND       PRES   REMARKS
LAS VEGAS      MOCLDY    46  11  24 W14G25    29.77S
RATON          MOCLDY    48  15  26 W17       29.67F
CLAYTON        CLEAR     50  15  24 W9        29.62

$$
NMZ532>537-230200-
EASTCENTRAL PLAINS

CITY           SKY/WX    TMP DP  RH WIND       PRES   REMARKS
TUCUMCARI        N/A     59  17  19 SW16      29.65F
CANNON AFB     CLEAR     66  16  14 W22G32    29.76F
CLOVIS AIRPORT CLEAR     52  16  24 SW13      29.74S

$$
NMZ028-029-538-230200-
SOUTHEAST PLAINS

CITY           SKY/WX    TMP DP  RH WIND       PRES   REMARKS
ROSWELL        CLEAR     51  21  30 S5        29.79S
CARLSBAD       CLEAR     63  26  24 W20G25    29.80S
HOBBS          CLEAR     54  32  43 SW8       29.82S


$$


USA.gov is the U.S. government's official web portal to all federal, state and local government web resources and services.